Temperature
16 16 16 16 15 15 15 15 14 14 14 14 14 13 13 13 13 13 13 13 13 13 13 12 13 12 13 13 12 12 13 13 13 13 13 13 13 13 14 14 14 14 14
16 16 16 16 15 15 15 14 14 14 14 14 14 13 13 13 13 13 13 13 13 12 12 12 12 12 12 12 13 13 13 12 13 13 13 13 13 13 13 14 14 14 14
16 16 16 15 15 15 15 15 14 14 14 14 14 13 13 13 13 13 12 12 12 12 12 12 12 12 12 12 12 12 12 12 12 12 13 13 13 13 13 13 13 14 14
16 16 16 15 15 15 15 14 14 14 14 14 13 13 13 13 13 12 12 12 12 12 12 12 12 12 12 12 12 12 12 12 12 12 12 12 13 13 13 13 13 13 13
16 16 16 15 15 15 14 14 14 14 14 13 13 13 13 13 13 13 12 12 12 12 12 12 12 12 12 12 12 12 12 12 12 12 12 12 12 12 12 12 13 13 13
16 16 16 15 15 15 14 14 14 14 13 13 13 13 13 12 13 12 12 12 12 12 11 11 11 12 12 12 12 12 12 12 12 12 12 12 12 12 12 12 12 12 13
16 16 15 15 15 14 14 14 14 13 13 13 12 12 12 12 12 12 12 12 11 11 11 11 11 11 11 11 11 12 12 12 12 11 11 12 12 12 12 12 12 12 12
15 15 15 15 14 14 14 13 13 13 13 12 12 12 12 12 12 12 12 11 11 11 11 11 11 11 11 11 11 11 11 11 12 11 11 11 11 11 11 11 11 12 12
15 15 15 14 14 14 13 13 13 13 12 12 12 12 11 11 12 12 12 11 11 11 11 11 11 11 11 11 11 11 11 11 11 11 11 11 11 11 11 11 11 11 11
15 15 14 14 14 13 13 13 13 12 12 12 12 11 11 11 11 11 11 11 10 11 11 11 11 11 11 11 10 10 10 11 11 11 11 11 11 11 11 11 11 11 11
15 14 14 14 13 13 13 12 12 12 12 11 11 11 11 11 11 11 11 10 10 10 10 10 10 11 11 11 10 10 10 10 10 10 10 10 11 10 10 10 10 10 10
14 14 14 13 13 13 12 12 12 12 11 11 11 11 11 10 11 10 11 10 10 10 10 10 10 10 10 10 10 10 10 10 10 10 10 10 10 10 10 10 10 10 10
14 13 13 13 12 12 12 12 11 11 11 11 10 10 10 10 10 10 10 10 10 10 9 9 10 10 10 10 10 10 10 9 9 9 9 9 9 9 10 10 10 10 10
13 13 13 12 12 12 12 11 11 11 10 10 10 10 10 9 9 9 9 9 9 9 9 9 9 9 9 9 9 9 9 9 9 9 9 9 9 9 9 9 9 9 9
13 12 12 12 12 11 11 11 11 11 10 10 10 9 9 9 9 9 9 9 8 8 8 8 8 9 9 9 9 9 9 9 9 9 9 9 9 9 9 9 9 9 9
12 12 12 12 11 11 11 11 11 11 10 10 10 10 9 9 9 9 9 8 8 8 8 8 8 8 8 8 8 8 8 8 8 8 8 8 8 8 8 8 8 8 8
12 12 12 11 11 11 10 10 10 10 10 10 9 9 9 9 9 8 8 8 8 8 7 8 8 8 8 8 8 8 8 8 8 8 8 8 8 8 8 8 8 8 8
12 12 11 11 11 10 10 10 9 9 9 9 9 9 9 8 8 8 8 8 7 7 7 7 7 7 7 7 7 7 7 7 7 7 7 7 7 7 7 7 7 7 7
11 11 11 10 10 10 9 9 9 9 9 8 8 8 8 8 8 8 7 7 7 7 7 7 7 7 7 7 7 7 7 7 7 7 7 7 7 7 7 7 7 7 7
11 11 10 10 10 9 9 9 9 8 8 8 8 8 8 7 7 7 7 7 7 7 7 7 7 7 7 7 7 7 7 7 7 6 7 7 7 7 6 6 6 6 6
11 10 10 10 9 9 9 9 8 8 8 8 8 7 7 7 7 7 7 7 6 6 6 6 6 6 6 6 6 6 6 6 6 6 6 6 6 6 6 6 6 6 6
10 10 9 9 9 9 8 8 8 8 7 7 7 7 7 7 6 6 6 6 6 6 6 6 6 6 6 6 6 6 6 6 6 6 6 6 6 6 6 6 6 5 5
10 9 9 9 8 8 8 8 8 7 7 7 7 7 6 6 6 6 6 6 6 6 6 6 6 6 6 6 6 6 5 6 6 6 6 5 5 5 5 5 5 5 5
9 9 9 8 8 8 8 7 7 7 7 6 6 6 6 6 6 6 6 5 5 5 5 5 5 5 5 5 5 5 5 5 5 5 5 5 5 5 5 5 5 5 5
9 8 8 8 8 8 7 7 7 7 6 6 6 6 6 6 5 5 5 5 5 5 5 5 5 5 5 5 5 5 5 5 5 5 5 5 5 5 5 5 5 4 4
8 8 8 8 7 7 7 7 6 6 6 6 6 5 5 5 5 5 5 5 5 5 5 4 5 4 4 4 4 4 5 5 5 5 5 4 4 4 4 4 4 4 4
Wind_Speed
5 4 3 2 2 1 1 2 2 2 2 3 3 3 3 3 4 3 4 4 4 4 4 4 4 4 4 3 3 3 4 4 4 4 4 4 4 4 3 3 2 2 2
5 4 3 3 2 1 1 1 1 2 2 3 3 3 3 4 4 4 4 4 4 5 5 5 5 4 4 4 3 4 4 4 5 5 5 4 4 4 3 3 3 2 1
5 4 4 3 2 1 1 1 1 1 2 2 3 3 4 4 4 4 5 5 5 5 5 5 6 5 5 4 4 4 4 4 4 5 4 4 4 3 3 3 3 2 2
5 4 4 3 2 1 1 0 1 1 2 2 3 3 4 4 4 4 4 5 5 5 5 5 5 5 5 5 4 5 5 5 4 4 4 4 3 4 3 3 3 2 3
6 5 4 3 2 2 1 1 1 1 2 2 3 3 4 4 5 6 5 5 5 5 5 4 4 5 6 5 5 5 5 4 4 4 4 4 3 3 3 3 4 4 3
6 4 4 3 3 2 1 1 2 1 2 2 2 3 3 4 6 7 7 5 5 5 5 5 4 4 3 2 3 4 5 5 5 4 4 4 4 4 3 4 4 4 4
6 5 4 4 3 2 2 2 1 1 2 2 2 3 3 4 5 6 7 5 4 5 5 5 4 4 5 5 3 4 3 3 5 6 6 5 6 5 5 5 5 5 5
6 5 4 3 3 2 2 1 1 0 1 1 2 2 3 3 5 6 7 5 4 5 5 5 5 5 5 6 5 4 4 4 4 5 5 6 6 5 5 6 6 5 5
6 5 5 4 3 3 2 1 1 0 0 1 1 2 2 2 4 6 8 4 4 4 4 5 6 5 6 7 6 5 5 4 2 3 4 5 5 5 5 4 4 4 4
6 5 5 4 4 3 2 1 1 1 1 2 1 2 2 3 4 5 8 5 5 4 4 4 4 5 7 7 6 6 6 6 5 4 3 3 4 3 4 5 5 5 5
6 6 5 4 4 3 2 2 1 1 1 2 2 2 3 3 2 3 7 5 5 6 5 4 4 4 6 7 7 6 6 7 6 5 4 4 3 3 3 4 4 5 5
6 6 5 4 3 3 3 2 2 2 2 2 3 3 3 3 3 3 5 6 8 6 6 5 4 5 6 7 6 6 8 7 5 4 4 4 4 3 3 4 5 5 5
7 6 5 5 4 3 3 3 2 2 3 3 3 3 3 3 2 2 4 5 7 6 6 6 6 7 7 6 4 6 7 5 4 4 4 4 4 4 4 4 4 4 5
7 6 5 5 4 3 2 3 3 3 3 3 4 4 4 4 4 4 4 4 4 5 6 5 6 7 7 6 5 5 4 4 5 5 5 5 4 4 4 4 4 4 4
7 6 5 4 3 3 3 2 3 3 3 4 4 4 5 5 4 6 6 6 6 6 7 6 6 6 5 5 5 4 4 4 4 5 5 5 5 4 5 5 4 4 5
6 5 4 4 3 3 3 3 2 3 2 3 5 6 5 5 5 6 8 8 8 8 8 6 6 6 6 6 6 5 5 5 5 5 5 5 5 5 5 5 5 5 5
6 5 4 3 3 3 3 4 4 3 5 6 6 6 7 7 7 7 8 8 8 8 7 7 7 7 7 6 6 6 6 5 5 5 5 5 5 5 5 5 5 5 6
6 5 4 3 3 4 4 4 4 5 5 4 5 6 6 7 8 8 7 7 6 6 6 7 7 7 7 7 7 7 6 6 6 6 6 6 6 6 5 6 5 6 6
6 4 4 3 4 4 4 4 5 6 6 6 5 4 4 6 8 8 7 7 7 7 7 7 8 8 8 8 7 7 7 6 7 7 7 7 6 6 6 6 6 6 7
5 4 4 4 4 4 5 5 5 6 6 6 6 6 5 5 6 6 6 7 7 8 8 8 8 8 8 8 8 8 8 8 8 8 7 7 6 6 7 7 7 7 7
5 5 6 5 5 5 5 6 6 6 6 7 7 6 5 7 8 8 8 8 8 8 8 9 8 8 8 8 8 9 10 9 8 8 7 7 7 7 7 7 7 7 7
5 5 5 5 5 5 5 6 6 7 7 8 7 6 6 8 8 8 8 9 9 8 9 9 8 8 8 8 8 9 9 9 9 8 8 8 7 8 8 7 7 7 7
6 6 5 5 5 5 6 6 7 7 8 8 8 8 8 8 9 9 10 9 9 9 9 9 9 9 9 9 9 9 10 10 9 9 9 9 8 8 8 9 9 9 9
6 6 6 6 6 6 7 7 7 8 8 9 9 9 9 9 10 10 10 10 10 10 10 10 10 12 13 11 11 11 11 11 11 10 11 10 10 9 9 9 10 10 10
7 7 7 7 7 7 7 8 8 8 9 9 9 9 9 10 10 10 10 10 11 11 12 12 11 12 14 15 14 13 13 13 13 12 11 10 11 11 11 11 10 10 10
7 8 7 7 7 8 8 8 9 9 9 9 9 10 10 10 11 11 10 10 10 11 11 11 13 15 15 15 16 15 14 14 14 15 13 10 11 11 11 10 12 11 11
Wind_Direction
161 154 147 142 130 107 65 44 32 25 17 6 3 358 357 353 353 353 351 353 346 346 343 339 335 334 325 321 310 300 297 293 290 300 309 315 317 315 327 312 286 257 190
163 160 153 152 149 148 82 43 30 26 17 11 5 357 356 351 347 345 343 340 339 340 339 334 332 330 321 323 317 308 299 292 290 297 303 315 316 315 318 309 292 279 261
160 160 158 163 162 162 119 44 6 8 15 13 4 359 353 350 346 341 337 334 334 334 333 332 332 333 328 329 318 312 302 294 287 283 296 311 307 314 315 309 297 299 283
162 160 159 160 164 174 151 96 0 353 354 3 360 357 355 352 348 343 337 333 332 333 332 332 337 338 334 329 321 317 308 299 293 286 289 298 305 311 304 303 301 294 282
164 163 160 153 149 151 134 102 46 11 355 0 358 2 5 1 3 346 336 335 334 334 335 335 344 350 349 338 330 322 315 304 296 293 293 295 303 306 304 301 294 292 279
164 159 152 155 145 142 137 104 72 44 17 15 11 13 14 18 17 354 331 329 330 333 333 331 333 337 329 303 329 325 321 309 304 298 294 299 307 309 306 292 289 285 283
164 154 156 155 148 152 146 118 94 67 34 11 10 11 9 26 19 359 335 322 323 328 329 330 332 336 329 327 300 261 275 284 293 293 294 301 303 309 305 293 287 283 284
164 158 155 155 151 151 151 137 145 52 33 355 0 4 4 21 18 353 325 313 324 326 325 325 325 334 346 333 322 318 317 313 299 289 292 297 305 312 300 292 289 284 282
166 164 160 157 153 151 153 172 218 278 338 319 347 347 341 8 26 350 323 328 327 328 334 336 331 332 358 332 315 316 315 312 289 272 297 299 309 303 295 285 279 271 276
169 167 159 158 160 164 168 183 201 243 270 286 307 312 329 343 32 352 326 328 330 328 328 327 353 340 343 329 314 312 309 312 312 300 281 276 284 288 270 271 277 269 270
163 160 156 161 167 169 169 181 199 233 266 284 297 305 316 332 354 347 331 329 333 325 321 318 333 357 334 324 309 309 314 310 301 296 295 298 298 300 300 296 291 277 274
156 158 161 165 169 171 174 191 213 233 251 268 281 294 300 307 329 336 326 319 320 317 315 316 331 340 320 310 303 312 306 295 289 291 294 297 300 301 302 305 304 296 286
158 162 166 169 172 182 194 204 222 239 260 276 282 287 294 305 306 284 292 301 303 303 309 326 319 305 291 283 279 289 288 286 288 289 290 294 297 298 299 298 296 295 296
166 170 172 179 184 191 208 228 240 251 261 272 281 287 292 295 304 313 311 304 289 287 295 293 273 269 266 277 282 276 281 289 288 283 287 287 285 283 280 281 282 282 284
174 179 183 188 197 209 214 240 252 256 276 276 281 289 292 292 323 332 312 308 311 310 307 294 290 288 287 285 284 284 282 280 276 277 278 281 282 281 283 280 273 272 272
180 186 190 193 199 214 225 230 241 255 264 264 278 286 286 299 311 303 299 301 303 300 294 285 286 286 288 289 288 286 285 286 281 275 275 275 276 279 278 277 272 266 267
186 187 192 203 209 222 235 247 253 238 223 233 245 260 273 291 291 289 289 289 282 278 281 283 284 287 288 287 286 284 283 283 283 277 273 272 272 272 269 268 267 268 270
190 187 196 207 221 232 242 250 258 266 269 265 241 232 247 262 270 272 274 279 279 269 278 281 283 284 284 283 282 282 282 281 276 274 271 270 269 268 267 265 263 265 268
194 196 203 217 228 238 246 254 261 266 271 275 278 260 238 255 253 252 253 271 279 280 280 281 280 280 280 279 279 279 278 277 277 276 272 269 265 265 266 265 264 264 263
200 194 212 222 231 240 249 256 262 266 270 273 275 281 282 281 283 278 272 278 278 279 278 278 278 278 279 280 277 274 273 271 270 270 271 265 261 259 262 266 266 264 262
202 200 208 230 239 247 255 260 265 268 271 274 276 282 286 280 281 281 280 279 278 280 280 278 277 276 275 275 274 270 270 270 268 268 268 263 260 258 258 260 264 266 263
206 212 219 233 243 251 260 263 266 269 272 275 278 274 252 267 276 278 278 279 279 280 281 279 275 274 273 271 272 273 273 273 270 267 266 265 261 257 257 257 259 262 264
213 220 227 237 246 249 255 262 266 269 273 275 277 280 278 277 278 279 280 281 283 282 281 280 277 276 274 272 271 270 272 271 270 270 268 266 262 258 256 255 255 260 258
216 225 234 242 248 253 257 262 265 269 272 273 275 277 278 278 279 280 281 281 281 280 279 279 277 275 275 275 274 270 270 274 275 272 267 264 263 263 259 255 255 255 255
222 230 238 244 249 254 259 263 266 269 271 273 275 277 278 279 279 279 280 280 280 279 279 279 277 276 275 274 274 274 274 272 271 273 271 262 260 259 258 255 253 255 251
228 234 241 247 251 256 260 264 268 270 271 273 274 276 278 279 279 279 280 279 280 280 280 277 274 275 276 277 276 275 274 269 265 263 262 261 258 256 255 253 253 252 250
Height
1566 1566 1567 1567 1567 1567 1567 1566 1565 1564 1563 1563 1561 1560 1559 1558 1556 1555 1554 1552 1551 1550 1548 1547 1545 1544 1543 1542 1540 1539 1538 1538 1537 1536 1535 1534 1533 1532 1531 1530 1530 1530 1530
1564 1565 1566 1566 1566 1566 1566 1566 1565 1564 1563 1562 1561 1560 1559 1557 1556 1555 1553 1552 1550 1549 1547 1546 1544 1543 1541 1540 1539 1538 1537 1536 1536 1534 1533 1532 1531 1530 1529 1529 1529 1529 1529
1563 1564 1565 1565 1566 1566 1566 1565 1564 1564 1563 1562 1561 1559 1558 1557 1555 1554 1552 1551 1550 1548 1546 1545 1543 1542 1540 1539 1538 1537 1536 1535 1534 1533 1532 1531 1530 1529 1528 1527 1527 1527 1527
1562 1563 1564 1564 1564 1564 1564 1564 1564 1563 1562 1561 1560 1559 1557 1556 1555 1553 1551 1550 1549 1547 1545 1543 1542 1540 1539 1538 1536 1535 1534 1533 1532 1531 1530 1529 1528 1527 1527 1526 1526 1525 1525
1561 1562 1563 1563 1563 1563 1563 1563 1562 1562 1561 1560 1559 1558 1556 1555 1553 1552 1550 1549 1547 1546 1544 1542 1540 1538 1537 1536 1535 1534 1533 1532 1531 1530 1529 1528 1527 1526 1525 1524 1524 1523 1523
1560 1560 1561 1561 1562 1562 1562 1562 1561 1560 1559 1558 1557 1556 1555 1553 1551 1550 1548 1547 1546 1545 1543 1541 1540 1538 1536 1534 1533 1531 1531 1530 1529 1529 1528 1527 1526 1525 1524 1523 1522 1522 1522
1558 1559 1559 1560 1560 1560 1560 1560 1559 1559 1558 1557 1556 1555 1553 1551 1550 1548 1547 1545 1544 1543 1541 1540 1538 1536 1534 1533 1532 1530 1529 1527 1527 1526 1526 1525 1524 1523 1522 1521 1520 1520 1519
1556 1557 1558 1558 1559 1559 1559 1558 1558 1557 1556 1555 1554 1553 1551 1550 1548 1547 1545 1544 1543 1541 1539 1538 1536 1535 1533 1531 1530 1528 1527 1526 1524 1524 1523 1522 1521 1520 1519 1519 1518 1517 1517
1554 1555 1556 1557 1557 1557 1557 1557 1556 1556 1555 1554 1552 1551 1550 1548 1547 1545 1543 1542 1541 1539 1537 1535 1534 1533 1530 1529 1528 1526 1525 1524 1522 1521 1520 1519 1518 1517 1516 1515 1515 1514 1514
1552 1553 1554 1555 1555 1555 1555 1555 1554 1554 1553 1552 1551 1550 1548 1547 1545 1543 1541 1540 1539 1537 1535 1533 1531 1530 1528 1526 1525 1524 1523 1521 1520 1519 1517 1516 1515 1514 1513 1513 1512 1512 1511
1550 1551 1552 1553 1553 1553 1553 1553 1552 1552 1551 1550 1549 1548 1547 1545 1543 1542 1540 1538 1536 1535 1533 1531 1529 1527 1525 1524 1523 1521 1520 1519 1517 1516 1515 1514 1513 1512 1511 1510 1509 1509 1508
1547 1549 1550 1550 1551 1551 1551 1551 1550 1550 1549 1548 1547 1546 1544 1543 1541 1539 1538 1536 1534 1532 1530 1528 1526 1524 1522 1521 1520 1518 1517 1515 1515 1514 1512 1511 1510 1509 1508 1507 1506 1505 1505
1545 1546 1547 1548 1548 1549 1549 1548 1548 1547 1547 1546 1545 1544 1542 1541 1539 1537 1535 1533 1531 1529 1527 1525 1523 1521 1519 1518 1516 1515 1514 1513 1512 1511 1509 1508 1507 1506 1505 1503 1502 1502 1501
1542 1544 1545 1545 1546 1546 1546 1546 1545 1545 1544 1543 1542 1541 1539 1538 1536 1534 1532 1530 1528 1526 1524 1521 1519 1517 1516 1514 1513 1512 1510 1509 1508 1507 1506 1505 1504 1502 1501 1500 1499 1498 1497
1540 1541 1542 1543 1543 1543 1543 1542 1542 1541 1541 1540 1539 1537 1536 1534 1533 1530 1528 1526 1524 1522 1520 1517 1516 1514 1513 1511 1509 1508 1507 1506 1504 1503 1502 1501 1500 1499 1498 1497 1496 1495 1494
1537 1538 1539 1539 1539 1539 1539 1539 1538 1538 1537 1536 1534 1533 1531 1530 1528 1526 1524 1522 1520 1518 1516 1514 1512 1511 1509 1508 1506 1505 1503 1502 1501 1500 1498 1497 1496 1495 1494 1493 1492 1492 1490
1534 1535 1536 1536 1536 1536 1536 1535 1535 1534 1533 1531 1530 1529 1527 1525 1524 1522 1520 1518 1516 1514 1512 1510 1509 1507 1506 1504 1502 1501 1499 1498 1496 1495 1494 1493 1492 1491 1490 1489 1488 1488 1487
1531 1532 1532 1533 1533 1533 1532 1532 1531 1530 1529 1527 1526 1524 1523 1521 1519 1517 1515 1513 1511 1510 1508 1507 1505 1503 1501 1500 1498 1497 1495 1494 1492 1490 1490 1488 1488 1487 1486 1485 1484 1483 1482
1528 1528 1529 1529 1529 1529 1528 1528 1527 1526 1525 1523 1522 1520 1518 1516 1514 1513 1511 1509 1507 1505 1504 1502 1500 1499 1497 1495 1494 1492 1491 1489 1488 1486 1485 1484 1483 1482 1481 1480 1479 1478 1477
1524 1525 1525 1525 1525 1525 1525 1524 1523 1522 1521 1519 1518 1516 1514 1512 1510 1508 1507 1505 1503 1500 1499 1497 1495 1494 1492 1490 1488 1487 1485 1484 1483 1481 1480 1479 1478 1477 1476 1475 1475 1474 1472
1520 1521 1521 1521 1521 1521 1521 1520 1519 1518 1516 1515 1513 1511 1509 1507 1505 1503 1502 1499 1497 1495 1493 1491 1490 1488 1486 1484 1483 1481 1480 1479 1477 1476 1475 1474 1473 1472 1471 1470 1470 1469 1467
1516 1516 1517 1517 1517 1516 1516 1515 1514 1513 1511 1510 1508 1506 1504 1502 1500 1498 1496 1494 1492 1490 1488 1486 1484 1482 1480 1479 1477 1476 1474 1473 1472 1471 1470 1468 1467 1466 1466 1465 1464 1463 1462
1511 1512 1512 1512 1512 1512 1511 1510 1509 1508 1506 1504 1503 1501 1499 1497 1495 1493 1490 1488 1486 1484 1482 1480 1478 1476 1474 1473 1471 1470 1468 1467 1466 1465 1464 1462 1461 1460 1460 1459 1458 1457 1456
1506 1507 1507 1507 1507 1507 1506 1505 1504 1502 1501 1499 1497 1495 1493 1491 1489 1486 1484 1482 1480 1477 1475 1473 1471 1470 1468 1466 1465 1463 1462 1461 1460 1458 1457 1456 1455 1454 1453 1452 1451 1450 1450
1501 1502 1502 1502 1502 1501 1500 1499 1498 1497 1495 1493 1491 1489 1487 1485 1482 1480 1477 1475 1473 1470 1468 1466 1465 1463 1461 1459 1458 1456 1455 1454 1452 1451 1450 1449 1448 1447 1446 1445 1444 1444 1443
1495 1496 1496 1496 1496 1495 1494 1493 1492 1490 1488 1487 1485 1483 1480 1478 1475 1473 1470 1468 1465 1463 1461 1459 1457 1455 1453 1452 1450 1449 1447 1446 1445 1444 1442 1441 1440 1439 1438 1438 1437 1437 1436